This is the latest recevied weather packets stored in our database for station/object KC3UTO. If no packets are shown the sender has not sent any weather packets the latest 10 day(s).
| Time | Temp. | Humidity | Pressure | Rain* | Wind** | Luminosity | Snow |
|---|---|---|---|---|---|---|---|
| 1777454816 | 11.67° C | 64% | 1014.9 hPa | 0 mm | - | 0 W/m² | - |
| 1777454511 | 11.67° C | 66% | 1014.9 hPa | 0 mm | - | 0 W/m² | - |
| 1777454208 | 11.67° C | 64% | 1015 hPa | 0 mm | - | 0 W/m² | - |
| 1777453905 | 11.67° C | 63% | 1015.2 hPa | 0 mm | - | 0 W/m² | - |
| 1777453602 | 11.67° C | 64% | 1015.1 hPa | 0 mm | - | 0 W/m² | - |
| 1777453298 | 11.67° C | 64% | 1015.3 hPa | 0 mm | - | 0 W/m² | - |
| 1777452996 | 11.67° C | 65% | 1015.1 hPa | 0 mm | - | 0 W/m² | - |
| 1777452693 | 11.67° C | 65% | 1015.1 hPa | 0 mm | - | 0 W/m² | - |
| 1777452389 | 11.67° C | 67% | 1015.2 hPa | 0 mm | - | 0 W/m² | - |
| 1777452085 | 11.67° C | 64% | 1015.2 hPa | 0 mm | - | 0 W/m² | - |
| 1777451780 | 11.67° C | 64% | 1015.2 hPa | 0 mm | - | 0 W/m² | - |
| 1777451476 | 11.67° C | 65% | 1015.1 hPa | 0 mm | - | 0 W/m² | - |
| 1777451172 | 11.67° C | 63% | 1015.1 hPa | 0 mm | - | 0 W/m² | - |
| 1777450868 | 11.67° C | 63% | 1015.2 hPa | 0 mm | - | 0 W/m² | - |
| 1777450563 | 11.67° C | 63% | 1015.3 hPa | 0 mm | - | 0 W/m² | - |
| 1777450260 | 11.67° C | 62% | 1015.3 hPa | 0 mm | - | 0 W/m² | - |
| 1777449956 | 11.67° C | 62% | 1015.6 hPa | 0 mm | - | 0 W/m² | - |
| 1777449653 | 12.22° C | 63% | 1015.5 hPa | 0 mm | - | 0 W/m² | - |
| 1777449349 | 12.22° C | 62% | 1015.3 hPa | 0 mm | - | 0 W/m² | - |
| 1777448438 | 11.67° C | 63% | 1015.1 hPa | 0 mm | - | 0 W/m² | - |
| 1777448134 | 11.67° C | 62% | 1015.3 hPa | 0 mm | - | 0 W/m² | - |
| 1777447831 | 12.22° C | 61% | 1015.4 hPa | 0 mm | - | 0 W/m² | - |
| 1777447526 | 12.22° C | 61% | 1015.5 hPa | 0 mm | - | 0 W/m² | - |
| 1777447223 | 12.22° C | 63% | 1015.5 hPa | 0 mm | - | 0 W/m² | - |
| 1777446922 | 12.22° C | 62% | 1015.6 hPa | 0 mm | - | 0 W/m² | - |
* Rain latest hour (hover to see other rain measurements)
** Current wind speed in m/s (hover to see current wind gust speed)